Vero Beach, FL

4:18 AM EST on December 15, 2017 (GMT -0500)
Vero Beach Municipal

Weather History for KVRB - October, 2010

Change the Weather History Date:

Friday, October 29, 2010

  Actual Average Record
Temperature  
Mean Temperature 79 °F 74 °F  
Max Temperature 86 °F 82 °F 92 °F (1980)
Min Temperature 72 °F 66 °F 46 °F (2008)
Degree Days  
Heating Degree Days 0 0  
Month to date heating degree days 0 0  
Since 1 July heating degree days 0 0  
Cooling Degree Days 14 9  
Month to date cooling degree days 304 343  
Year to date cooling degree days 3198 3110  
Growing Degree Days 29 (Base 50)    
Moisture  
Dew Point 67 °F    
Average Humidity 69    
Maximum Humidity 93    
Minimum Humidity 45    
Precipitation  
Precipitation 0.00 in 0.11 in 2.19 in (1969)
Month to date precipitation 0.01 4.69  
Year to date precipitation 34.05 46.18  
Sea Level Pressure  
Sea Level Pressure 30.02 in    
Wind  
Wind Speed 10 mph (NNW)    
Max Wind Speed 21 mph    
Max Gust Speed 25 mph    
Visibility 10 miles    
Events      
T = Trace of Precipitation, MM = Missing Value Source: NWS Daily Summary

Daily Weather History Graph

Daily Weather History Graph

Search for Another Location

Airport or City:

Trip Planner

Search our weather history database for the weather conditions in past years. The results will help you decide how hot, cold, wet, or windy it might be!

Date:

Astronomy

Oct. 29, 2010 Rise Set
Actual Time 7:30 AM EDT 6:39 PM EDT
Civil Twilight 7:06 AM EDT 7:03 PM EDT
Nautical Twilight 6:38 AM EDT 7:31 PM EDT
Astronomical Twilight 6:11 AM EDT 7:58 PM EDT
Moon No Moon Rise 1:20 PM EDT (10/29)
Length of Visible Light 11h 57m
Length of Day
11h 09m
Waning Gibbous, 60% of the Moon is Illuminated
Oct 29
Waning Gibbous
Oct 30
Last Quarter
Nov 6
New
Nov 13
First Quarter
Nov 21
Full

Hourly Weather History & Observations

Time (EDT) Temp. Heat Index Dew Point Humidity Pressure Visibility Wind Dir Wind Speed Gust Speed Precip Events Conditions
12:53 AM 73.9 °F - 71.1 °F 91% 30.02 in 10.0 mi West 5.8 mph - N/A   Scattered Clouds
1:53 AM 73.9 °F - 71.1 °F 91% 30.01 in 10.0 mi SW 4.6 mph - N/A   Partly Cloudy
2:53 AM 73.9 °F - 71.1 °F 91% 29.99 in 10.0 mi SW 4.6 mph - N/A   Overcast
3:53 AM 73.9 °F - 70.0 °F 87% 29.97 in 10.0 mi SW 5.8 mph - N/A   Scattered Clouds
4:53 AM 72.0 °F - 70.0 °F 93% 29.96 in 10.0 mi West 4.6 mph - N/A   Clear
5:53 AM 73.0 °F - 71.1 °F 93% 29.98 in 10.0 mi West 5.8 mph - N/A   Overcast
6:25 AM 73.4 °F - 71.6 °F 94% 29.99 in 10.0 mi WNW 8.1 mph - N/A   Overcast
6:53 AM 73.9 °F - 71.1 °F 91% 29.99 in 10.0 mi WNW 5.8 mph - N/A   Overcast
7:53 AM 73.0 °F - 70.0 °F 90% 30.01 in 10.0 mi NW 5.8 mph - N/A   Overcast
8:00 AM 73.4 °F - 69.8 °F 88% 30.01 in 10.0 mi NW 6.9 mph - N/A   Partly Cloudy
8:53 AM 75.0 °F - 70.0 °F 84% 30.03 in 10.0 mi NNW 8.1 mph - N/A   Scattered Clouds
9:48 AM 77.0 °F - 71.6 °F 83% 30.04 in 10.0 mi NNW 9.2 mph - N/A   Overcast
9:53 AM 77.0 °F - 71.1 °F 82% 30.04 in 10.0 mi NNW 9.2 mph - N/A   Overcast
10:09 AM 77.0 °F - 71.6 °F 83% 30.04 in 10.0 mi NNW 8.1 mph - N/A   Overcast
10:53 AM 81.0 °F 83.3 °F 66.9 °F 62% 30.04 in 10.0 mi North 16.1 mph 23.0 mph N/A   Scattered Clouds
11:53 AM 82.9 °F 84.6 °F 64.9 °F 54% 30.05 in 10.0 mi North 13.8 mph 25.3 mph N/A   Scattered Clouds
12:53 PM 82.9 °F 84.6 °F 64.9 °F 54% 30.03 in 10.0 mi North 16.1 mph - N/A   Partly Cloudy
1:53 PM 86.0 °F 86.8 °F 63.0 °F 46% 30.01 in 10.0 mi North 16.1 mph 24.2 mph N/A   Scattered Clouds
2:53 PM 82.9 °F 83.7 °F 62.1 °F 49% 29.99 in 10.0 mi North 16.1 mph 23.0 mph N/A   Mostly Cloudy
3:53 PM 82.0 °F 82.7 °F 61.0 °F 49% 29.99 in 10.0 mi North 15.0 mph - N/A   Clear
4:53 PM 81.0 °F 81.6 °F 60.1 °F 49% 30.00 in 10.0 mi North 17.3 mph 21.9 mph N/A   Clear
5:53 PM 79.0 °F - 63.0 °F 58% 30.01 in 10.0 mi North 16.1 mph 20.7 mph N/A   Clear
6:53 PM 75.9 °F - 64.9 °F 69% 30.03 in 10.0 mi North 9.2 mph - N/A   Clear
7:53 PM 75.0 °F - 66.0 °F 73% 30.04 in 10.0 mi North 5.8 mph - N/A   Clear
8:53 PM 78.1 °F - 63.0 °F 60% 30.04 in 10.0 mi NNE 9.2 mph - N/A   Mostly Cloudy
9:53 PM 77.0 °F - 62.1 °F 60% 30.06 in 10.0 mi NNE 11.5 mph 17.3 mph N/A   Partly Cloudy
10:53 PM 75.9 °F - 59.0 °F 56% 30.08 in 10.0 mi NNE 8.1 mph - N/A   Partly Cloudy
11:53 PM 75.9 °F - 61.0 °F 60% 30.08 in 10.0 mi NNE 9.2 mph - N/A   Partly Cloudy